Satellite-Ground Cal/Val Region Overpasses Predictions

Prediction of Satellite NPP Overpassing Cal/Val Region: PacNW

Region Location: (Latitude: 10.00, Longitude: 139.50) to (Latitude: 22.70, Longitude: 165.60).

Table of predicted overpasses for the next 14.0 days since TLE Epoch: 4/15/2024
Interval Starting Time Starting Location Ending Time Ending Location
1 04/15/2024 14:59:21 ( 22.67, 160.11) 04/15/2024 15:02:56 ( 10.05, 157.11)
2 04/16/2024 02:10:55 ( 18.75, 165.60) 04/16/2024 02:12:02 ( 22.68, 164.63)
3 04/16/2024 03:49:56 ( 10.00, 142.27) 04/16/2024 03:53:15 ( 21.68, 139.50)
4 04/16/2024 14:40:19 ( 22.66, 164.86) 04/16/2024 14:43:54 ( 10.04, 161.86)
5 04/17/2024 03:30:54 ( 10.01, 147.02) 04/17/2024 03:34:30 ( 22.69, 144.01)
6 04/17/2024 16:02:47 ( 22.70, 144.25) 04/17/2024 16:06:23 ( 10.02, 141.24)
7 04/18/2024 03:11:53 ( 10.03, 151.77) 04/18/2024 03:15:28 ( 22.65, 148.78)
8 04/18/2024 15:43:45 ( 22.68, 149.00) 04/18/2024 15:47:21 ( 10.00, 145.99)
9 04/19/2024 02:52:51 ( 10.04, 156.53) 04/19/2024 02:56:26 ( 22.67, 153.53)
10 04/19/2024 15:24:44 ( 22.66, 153.76) 04/19/2024 15:28:19 ( 10.04, 150.76)
11 04/20/2024 02:33:49 ( 10.00, 161.29) 04/20/2024 02:37:25 ( 22.69, 158.28)
12 04/20/2024 15:05:42 ( 22.65, 158.51) 04/20/2024 15:09:17 ( 10.02, 155.51)
13 04/21/2024 02:15:20 ( 11.96, 165.60) 04/21/2024 02:18:22 ( 22.65, 163.04)
14 04/21/2024 03:56:17 ( 10.03, 140.67) 04/21/2024 03:57:42 ( 15.02, 139.51)
15 04/21/2024 14:46:40 ( 22.68, 163.27) 04/21/2024 14:50:16 ( 10.00, 160.26)
16 04/22/2024 03:37:16 ( 10.05, 145.42) 04/22/2024 03:40:51 ( 22.67, 142.42)
17 04/22/2024 14:30:32 ( 12.51, 165.59) 04/22/2024 14:31:14 ( 10.04, 165.02)
18 04/22/2024 16:09:09 ( 22.66, 142.65) 04/22/2024 16:12:44 ( 10.04, 139.65)
19 04/23/2024 03:18:13 ( 10.02, 150.18) 04/23/2024 03:21:49 ( 22.70, 147.17)
20 04/23/2024 15:50:06 ( 22.69, 147.41) 04/23/2024 15:53:42 ( 10.01, 144.40)
21 04/24/2024 02:59:12 ( 10.04, 154.93) 04/24/2024 03:02:47 ( 22.67, 151.93)
22 04/24/2024 15:31:05 ( 22.66, 152.16) 04/24/2024 15:34:40 ( 10.04, 149.16)
23 04/25/2024 02:40:09 ( 10.01, 159.70) 04/25/2024 02:43:45 ( 22.69, 156.68)
24 04/25/2024 15:12:02 ( 22.70, 156.93) 04/25/2024 15:15:38 ( 10.02, 153.91)
25 04/26/2024 02:21:08 ( 10.04, 164.45) 04/26/2024 02:24:43 ( 22.66, 161.45)
26 04/26/2024 14:53:01 ( 22.67, 161.68) 04/26/2024 14:56:36 ( 10.05, 158.68)
27 04/27/2024 03:43:35 ( 10.02, 143.84) 04/27/2024 03:47:10 ( 22.64, 140.84)
28 04/27/2024 14:34:57 ( 19.23, 165.59) 04/27/2024 14:37:34 ( 10.01, 163.43)
29 04/27/2024 16:15:28 ( 22.69, 141.07) 04/27/2024 16:17:17 ( 16.29, 139.51)
30 04/28/2024 03:24:34 ( 10.05, 148.59) 04/28/2024 03:28:09 ( 22.68, 145.58)
31 04/28/2024 15:56:27 ( 22.65, 145.81) 04/28/2024 16:00:02 ( 10.03, 142.81)
